owner,sensor,date,latitude,longitude,air_temperature,qcFlag 
LOOP,urn:ioos:station:wmo:lopl1:1,2019-06-01T00:41:00Z,28.8850,-90.0250,28.0,11111222 
LOOP,urn:ioos:station:wmo:lopl1:1,2019-06-01T01:41:00Z,28.8850,-90.0250,27.8,11111222 
LOOP,urn:ioos:station:wmo:lopl1:1,2019-06-01T02:41:00Z,28.8850,-90.0250,27.5,11111222 
LOOP,urn:ioos:station:wmo:lopl1:1,2019-06-01T03:41:00Z,28.8850,-90.0250,27.4,11111222 
LOOP,urn:ioos:station:wmo:lopl1:1,2019-06-01T04:41:00Z,28.8850,-90.0250,27.2,11111222 
LOOP,urn:ioos:station:wmo:lopl1:1,2019-06-01T05:41:00Z,28.8850,-90.0250,27.1,11111222 
LOOP,urn:ioos:station:wmo:lopl1:1,2019-06-01T06:41:00Z,28.8850,-90.0250,27.2,11111222 
LOOP,urn:ioos:station:wmo:lopl1:1,2019-06-01T07:46:00Z,28.8850,-90.0250,27.1,11111222 
LOOP,urn:ioos:station:wmo:lopl1:1,2019-06-01T08:46:00Z,28.8850,-90.0250,26.9,11111222 
LOOP,urn:ioos:station:wmo:lopl1:1,2019-06-01T09:46:00Z,28.8850,-90.0250,27.0,11111222 
LOOP,urn:ioos:station:wmo:lopl1:1,2019-06-01T10:46:00Z,28.8850,-90.0250,26.9,11111222 
LOOP,urn:ioos:station:wmo:lopl1:1,2019-06-01T11:46:00Z,28.8850,-90.0250,27.2,11111222 
LOOP,urn:ioos:station:wmo:lopl1:1,2019-06-01T12:46:00Z,28.8850,-90.0250,28.8,11111222 
LOOP,urn:ioos:station:wmo:lopl1:1,2019-06-01T13:46:00Z,28.8850,-90.0250,30.5,11111222 
LOOP,urn:ioos:station:wmo:lopl1:1,2019-06-01T14:46:00Z,28.8850,-90.0250,28.7,11111222 
LOOP,urn:ioos:station:wmo:lopl1:1,2019-06-01T15:46:00Z,28.8850,-90.0250,29.1,11111222 
LOOP,urn:ioos:station:wmo:lopl1:1,2019-06-01T16:46:00Z,28.8850,-90.0250,29.7,11111222 
LOOP,urn:ioos:station:wmo:lopl1:1,2019-06-01T17:46:00Z,28.8850,-90.0250,29.4,11111222 
LOOP,urn:ioos:station:wmo:lopl1:1,2019-06-01T18:46:00Z,28.8850,-90.0250,29.3,11111222 
LOOP,urn:ioos:station:wmo:lopl1:1,2019-06-01T19:46:00Z,28.8850,-90.0250,29.8,11111222 
LOOP,urn:ioos:station:wmo:lopl1:1,2019-06-01T20:51:00Z,28.8850,-90.0250,30.0,11111222 
LOOP,urn:ioos:station:wmo:lopl1:1,2019-06-01T21:51:00Z,28.8850,-90.0250,29.7,11111222 
LOOP,urn:ioos:station:wmo:lopl1:1,2019-06-01T22:51:00Z,28.8850,-90.0250,29.8,11111222 
LOOP,urn:ioos:station:wmo:lopl1:1,2019-06-01T23:51:00Z,28.8850,-90.0250,29.5,11111222 
LOOP,urn:ioos:station:wmo:lopl1:1,2019-06-02T00:51:00Z,28.8850,-90.0250,29.0,11111222 
LOOP,urn:ioos:station:wmo:lopl1:1,2019-06-02T01:51:00Z,28.8850,-90.0250,28.5,11111222 
LOOP,urn:ioos:station:wmo:lopl1:1,2019-06-02T02:51:00Z,28.8850,-90.0250,28.5,11111222 
LOOP,urn:ioos:station:wmo:lopl1:1,2019-06-02T03:51:00Z,28.8850,-90.0250,28.4,11111222 
LOOP,urn:ioos:station:wmo:lopl1:1,2019-06-02T04:51:00Z,28.8850,-90.0250,28.0,11111222 
LOOP,urn:ioos:station:wmo:lopl1:1,2019-06-02T05:51:00Z,28.8850,-90.0250,28.0,11111222 
LOOP,urn:ioos:station:wmo:lopl1:1,2019-06-02T06:51:00Z,28.8850,-90.0250,27.9,11111222 
LOOP,urn:ioos:station:wmo:lopl1:1,2019-06-02T07:51:00Z,28.8850,-90.0250,27.9,11111222 
LOOP,urn:ioos:station:wmo:lopl1:1,2019-06-02T08:51:00Z,28.8850,-90.0250,27.9,11111222 
LOOP,urn:ioos:station:wmo:lopl1:1,2019-06-02T09:51:00Z,28.8850,-90.0250,27.7,11111222 
LOOP,urn:ioos:station:wmo:lopl1:1,2019-06-02T10:56:00Z,28.8850,-90.0250,27.6,11111222 
LOOP,urn:ioos:station:wmo:lopl1:1,2019-06-02T11:56:00Z,28.8850,-90.0250,27.6,11111222 
LOOP,urn:ioos:station:wmo:lopl1:1,2019-06-02T12:56:00Z,28.8850,-90.0250,27.8,11111222 
LOOP,urn:ioos:station:wmo:lopl1:1,2019-06-02T13:56:00Z,28.8850,-90.0250,28.6,11111222 
LOOP,urn:ioos:station:wmo:lopl1:1,2019-06-02T14:56:00Z,28.8850,-90.0250,28.9,11111222 
LOOP,urn:ioos:station:wmo:lopl1:1,2019-06-02T15:56:00Z,28.8850,-90.0250,29.8,11111222 
LOOP,urn:ioos:station:wmo:lopl1:1,2019-06-02T16:56:00Z,28.8850,-90.0250,29.8,11111222 
LOOP,urn:ioos:station:wmo:lopl1:1,2019-06-02T17:56:00Z,28.8850,-90.0250,30.6,11111222 
LOOP,urn:ioos:station:wmo:lopl1:1,2019-06-02T18:56:00Z,28.8850,-90.0250,30.3,11111222 
LOOP,urn:ioos:station:wmo:lopl1:1,2019-06-02T19:56:00Z,28.8850,-90.0250,30.0,11111222 
LOOP,urn:ioos:station:wmo:lopl1:1,2019-06-02T20:56:00Z,28.8850,-90.0250,30.2,11111222 
LOOP,urn:ioos:station:wmo:lopl1:1,2019-06-02T21:56:00Z,28.8850,-90.0250,30.4,11111222 
LOOP,urn:ioos:station:wmo:lopl1:1,2019-06-02T22:56:00Z,28.8850,-90.0250,30.7,11111222 
LOOP,urn:ioos:station:wmo:lopl1:1,2019-06-03T00:01:00Z,28.8850,-90.0250,30.2,11111222 
LOOP,urn:ioos:station:wmo:lopl1:1,2019-06-03T01:01:00Z,28.8850,-90.0250,29.3,11111222 
LOOP,urn:ioos:station:wmo:lopl1:1,2019-06-03T02:01:00Z,28.8850,-90.0250,29.5,11111222 
LOOP,urn:ioos:station:wmo:lopl1:1,2019-06-03T03:01:00Z,28.8850,-90.0250,29.5,11111222 
LOOP,urn:ioos:station:wmo:lopl1:1,2019-06-03T04:01:00Z,28.8850,-90.0250,29.2,11111222 
LOOP,urn:ioos:station:wmo:lopl1:1,2019-06-03T05:01:00Z,28.8850,-90.0250,29.1,11111222 
LOOP,urn:ioos:station:wmo:lopl1:1,2019-06-03T06:01:00Z,28.8850,-90.0250,29.1,11111222 
LOOP,urn:ioos:station:wmo:lopl1:1,2019-06-03T07:01:00Z,28.8850,-90.0250,28.7,11111222 
LOOP,urn:ioos:station:wmo:lopl1:1,2019-06-03T08:01:00Z,28.8850,-90.0250,28.4,11111222 
LOOP,urn:ioos:station:wmo:lopl1:1,2019-06-03T09:01:00Z,28.8850,-90.0250,28.6,11111222 
LOOP,urn:ioos:station:wmo:lopl1:1,2019-06-03T10:01:00Z,28.8850,-90.0250,28.4,11111222 
LOOP,urn:ioos:station:wmo:lopl1:1,2019-06-03T11:06:00Z,28.8850,-90.0250,28.5,11111222 
LOOP,urn:ioos:station:wmo:lopl1:1,2019-06-03T12:06:00Z,28.8850,-90.0250,25.0,11111222 
LOOP,urn:ioos:station:wmo:lopl1:1,2019-06-03T13:06:00Z,28.8850,-90.0250,27.9,11111222 
LOOP,urn:ioos:station:wmo:lopl1:1,2019-06-03T14:06:00Z,28.8850,-90.0250,27.1,11111222 
LOOP,urn:ioos:station:wmo:lopl1:1,2019-06-03T15:06:00Z,28.8850,-90.0250,27.4,11111222 
LOOP,urn:ioos:station:wmo:lopl1:1,2019-06-03T16:06:00Z,28.8850,-90.0250,29.0,11111222 
LOOP,urn:ioos:station:wmo:lopl1:1,2019-06-03T17:06:00Z,28.8850,-90.0250,29.2,11111222 
LOOP,urn:ioos:station:wmo:lopl1:1,2019-06-03T18:06:00Z,28.8850,-90.0250,29.5,11111222 
LOOP,urn:ioos:station:wmo:lopl1:1,2019-06-03T19:06:00Z,28.8850,-90.0250,29.1,11111222 
LOOP,urn:ioos:station:wmo:lopl1:1,2019-06-03T20:06:00Z,28.8850,-90.0250,29.4,11111222 
LOOP,urn:ioos:station:wmo:lopl1:1,2019-06-03T21:06:00Z,28.8850,-90.0250,29.7,11111222 
LOOP,urn:ioos:station:wmo:lopl1:1,2019-06-03T22:06:00Z,28.8850,-90.0250,29.8,11111222 
LOOP,urn:ioos:station:wmo:lopl1:1,2019-06-03T23:06:00Z,28.8850,-90.0250,30.0,11111222 
LOOP,urn:ioos:station:wmo:lopl1:1,2019-06-04T00:11:00Z,28.8850,-90.0250,30.2,11111222 
LOOP,urn:ioos:station:wmo:lopl1:1,2019-06-04T01:11:00Z,28.8850,-90.0250,29.7,11111222 
LOOP,urn:ioos:station:wmo:lopl1:1,2019-06-04T02:11:00Z,28.8850,-90.0250,29.4,11111222 
LOOP,urn:ioos:station:wmo:lopl1:1,2019-06-04T03:11:00Z,28.8850,-90.0250,29.4,11111222 
LOOP,urn:ioos:station:wmo:lopl1:1,2019-06-04T04:11:00Z,28.8850,-90.0250,29.0,11111222 
LOOP,urn:ioos:station:wmo:lopl1:1,2019-06-04T05:12:00Z,28.8850,-90.0250,28.6,11111222 
LOOP,urn:ioos:station:wmo:lopl1:1,2019-06-04T06:12:00Z,28.8850,-90.0250,28.6,11111222 
LOOP,urn:ioos:station:wmo:lopl1:1,2019-06-04T07:12:00Z,28.8850,-90.0250,28.1,11111222 
LOOP,urn:ioos:station:wmo:lopl1:1,2019-06-04T08:12:00Z,28.8850,-90.0250,27.8,11111222 
LOOP,urn:ioos:station:wmo:lopl1:1,2019-06-04T09:12:00Z,28.8850,-90.0250,27.6,11111222 
LOOP,urn:ioos:station:wmo:lopl1:1,2019-06-04T10:12:00Z,28.8850,-90.0250,27.5,11111222 
LOOP,urn:ioos:station:wmo:lopl1:1,2019-06-04T11:17:00Z,28.8850,-90.0250,27.4,11111222 
LOOP,urn:ioos:station:wmo:lopl1:1,2019-06-04T12:17:00Z,28.8850,-90.0250,27.6,11111222 
LOOP,urn:ioos:station:wmo:lopl1:1,2019-06-04T13:17:00Z,28.8850,-90.0250,27.8,11111222 
LOOP,urn:ioos:station:wmo:lopl1:1,2019-06-04T14:17:00Z,28.8850,-90.0250,28.0,11111222 
LOOP,urn:ioos:station:wmo:lopl1:1,2019-06-04T15:17:00Z,28.8850,-90.0250,28.1,11111222 
LOOP,urn:ioos:station:wmo:lopl1:1,2019-06-04T16:17:00Z,28.8850,-90.0250,28.1,11111222 
LOOP,urn:ioos:station:wmo:lopl1:1,2019-06-04T17:17:00Z,28.8850,-90.0250,28.2,11111222 
LOOP,urn:ioos:station:wmo:lopl1:1,2019-06-04T18:17:00Z,28.8850,-90.0250,28.4,11111222 
LOOP,urn:ioos:station:wmo:lopl1:1,2019-06-04T19:17:00Z,28.8850,-90.0250,28.4,11111222 
LOOP,urn:ioos:station:wmo:lopl1:1,2019-06-04T20:17:00Z,28.8850,-90.0250,28.5,11111222 
LOOP,urn:ioos:station:wmo:lopl1:1,2019-06-04T21:17:00Z,28.8850,-90.0250,28.6,11111222 
LOOP,urn:ioos:station:wmo:lopl1:1,2019-06-04T22:17:00Z,28.8850,-90.0250,28.7,11111222 
LOOP,urn:ioos:station:wmo:lopl1:1,2019-06-04T23:22:00Z,28.8850,-90.0250,28.6,11111222 
LOOP,urn:ioos:station:wmo:lopl1:1,2019-06-05T00:22:00Z,28.8850,-90.0250,28.5,11111222 
LOOP,urn:ioos:station:wmo:lopl1:1,2019-06-05T01:22:00Z,28.8850,-90.0250,28.3,11111222 
LOOP,urn:ioos:station:wmo:lopl1:1,2019-06-05T02:22:00Z,28.8850,-90.0250,28.2,11111222 
LOOP,urn:ioos:station:wmo:lopl1:1,2019-06-05T03:22:00Z,28.8850,-90.0250,28.3,11111222 
LOOP,urn:ioos:station:wmo:lopl1:1,2019-06-05T04:22:00Z,28.8850,-90.0250,28.0,11111222 
LOOP,urn:ioos:station:wmo:lopl1:1,2019-06-05T05:22:00Z,28.8850,-90.0250,28.0,11111222 
LOOP,urn:ioos:station:wmo:lopl1:1,2019-06-05T06:22:00Z,28.8850,-90.0250,27.8,11111222 
LOOP,urn:ioos:station:wmo:lopl1:1,2019-06-05T07:22:00Z,28.8850,-90.0250,27.7,11111222 
LOOP,urn:ioos:station:wmo:lopl1:1,2019-06-05T08:22:00Z,28.8850,-90.0250,27.8,11111222 
LOOP,urn:ioos:station:wmo:lopl1:1,2019-06-05T09:22:00Z,28.8850,-90.0250,27.9,11111222 
LOOP,urn:ioos:station:wmo:lopl1:1,2019-06-05T10:27:00Z,28.8850,-90.0250,27.7,11111222 
LOOP,urn:ioos:station:wmo:lopl1:1,2019-06-05T11:27:00Z,28.8850,-90.0250,27.7,11111222 
LOOP,urn:ioos:station:wmo:lopl1:1,2019-06-05T12:27:00Z,28.8850,-90.0250,27.9,11111222 
LOOP,urn:ioos:station:wmo:lopl1:1,2019-06-05T13:27:00Z,28.8850,-90.0250,28.1,11111222 
LOOP,urn:ioos:station:wmo:lopl1:1,2019-06-05T14:27:00Z,28.8850,-90.0250,28.0,11111222 
LOOP,urn:ioos:station:wmo:lopl1:1,2019-06-05T15:27:00Z,28.8850,-90.0250,28.1,11111222 
LOOP,urn:ioos:station:wmo:lopl1:1,2019-06-05T16:27:00Z,28.8850,-90.0250,28.3,11111222 
LOOP,urn:ioos:station:wmo:lopl1:1,2019-06-05T17:27:00Z,28.8850,-90.0250,28.3,11111222 
LOOP,urn:ioos:station:wmo:lopl1:1,2019-06-05T18:27:00Z,28.8850,-90.0250,28.1,11111222 
LOOP,urn:ioos:station:wmo:lopl1:1,2019-06-05T19:27:00Z,28.8850,-90.0250,28.3,11111222 
LOOP,urn:ioos:station:wmo:lopl1:1,2019-06-05T20:27:00Z,28.8850,-90.0250,28.2,11111222 
LOOP,urn:ioos:station:wmo:lopl1:1,2019-06-05T21:27:00Z,28.8850,-90.0250,28.2,11111222 
LOOP,urn:ioos:station:wmo:lopl1:1,2019-06-05T22:27:00Z,28.8850,-90.0250,28.2,11111222 
LOOP,urn:ioos:station:wmo:lopl1:1,2019-06-05T23:27:00Z,28.8850,-90.0250,28.0,11111222 
LOOP,urn:ioos:station:wmo:lopl1:1,2019-06-06T00:27:00Z,28.8850,-90.0250,27.9,11111222 
LOOP,urn:ioos:station:wmo:lopl1:1,2019-06-06T01:32:00Z,28.8850,-90.0250,27.9,11111222 
LOOP,urn:ioos:station:wmo:lopl1:1,2019-06-06T02:32:00Z,28.8850,-90.0250,27.9,11111222 
LOOP,urn:ioos:station:wmo:lopl1:1,2019-06-06T03:32:00Z,28.8850,-90.0250,28.0,11111222 
LOOP,urn:ioos:station:wmo:lopl1:1,2019-06-06T04:32:00Z,28.8850,-90.0250,27.9,11111222 
LOOP,urn:ioos:station:wmo:lopl1:1,2019-06-06T05:32:00Z,28.8850,-90.0250,28.0,11111222 
LOOP,urn:ioos:station:wmo:lopl1:1,2019-06-06T06:32:00Z,28.8850,-90.0250,28.0,11111222 
LOOP,urn:ioos:station:wmo:lopl1:1,2019-06-06T07:32:00Z,28.8850,-90.0250,27.9,11111222 
LOOP,urn:ioos:station:wmo:lopl1:1,2019-06-06T08:32:00Z,28.8850,-90.0250,27.9,11111222 
LOOP,urn:ioos:station:wmo:lopl1:1,2019-06-06T09:32:00Z,28.8850,-90.0250,27.8,11111222 
LOOP,urn:ioos:station:wmo:lopl1:1,2019-06-06T10:32:00Z,28.8850,-90.0250,27.9,11111222 
LOOP,urn:ioos:station:wmo:lopl1:1,2019-06-06T11:32:00Z,28.8850,-90.0250,28.1,11111222 
LOOP,urn:ioos:station:wmo:lopl1:1,2019-06-06T12:32:00Z,28.8850,-90.0250,28.1,11111222 
LOOP,urn:ioos:station:wmo:lopl1:1,2019-06-06T13:37:00Z,28.8850,-90.0250,28.1,11111222 
LOOP,urn:ioos:station:wmo:lopl1:1,2019-06-06T14:37:00Z,28.8850,-90.0250,28.1,11111222 
LOOP,urn:ioos:station:wmo:lopl1:1,2019-06-06T15:37:00Z,28.8850,-90.0250,28.1,11111222 
LOOP,urn:ioos:station:wmo:lopl1:1,2019-06-06T16:37:00Z,28.8850,-90.0250,28.1,11111222 
LOOP,urn:ioos:station:wmo:lopl1:1,2019-06-06T17:37:00Z,28.8850,-90.0250,28.0,11111222 
LOOP,urn:ioos:station:wmo:lopl1:1,2019-06-06T18:37:00Z,28.8850,-90.0250,23.7,11111222 
LOOP,urn:ioos:station:wmo:lopl1:1,2019-06-06T19:37:00Z,28.8850,-90.0250,26.5,11111222 
LOOP,urn:ioos:station:wmo:lopl1:1,2019-06-06T20:37:00Z,28.8850,-90.0250,26.4,11111222 
LOOP,urn:ioos:station:wmo:lopl1:1,2019-06-06T21:37:00Z,28.8850,-90.0250,25.8,11111222 
LOOP,urn:ioos:station:wmo:lopl1:1,2019-06-06T22:37:00Z,28.8850,-90.0250,26.3,11111222 
LOOP,urn:ioos:station:wmo:lopl1:1,2019-06-06T23:37:00Z,28.8850,-90.0250,27.1,11111222 
LOOP,urn:ioos:station:wmo:lopl1:1,2019-06-07T00:37:00Z,28.8850,-90.0250,27.6,11111222 
LOOP,urn:ioos:station:wmo:lopl1:1,2019-06-07T01:37:00Z,28.8850,-90.0250,27.8,11111222 
LOOP,urn:ioos:station:wmo:lopl1:1,2019-06-07T02:37:00Z,28.8850,-90.0250,27.7,11111222 
LOOP,urn:ioos:station:wmo:lopl1:1,2019-06-07T03:42:00Z,28.8850,-90.0250,27.8,11111222 
LOOP,urn:ioos:station:wmo:lopl1:1,2019-06-07T04:42:00Z,28.8850,-90.0250,27.6,11111222 
LOOP,urn:ioos:station:wmo:lopl1:1,2019-06-07T05:42:00Z,28.8850,-90.0250,27.5,11111222 
LOOP,urn:ioos:station:wmo:lopl1:1,2019-06-07T06:42:00Z,28.8850,-90.0250,27.5,11111222 
LOOP,urn:ioos:station:wmo:lopl1:1,2019-06-07T07:42:00Z,28.8850,-90.0250,27.4,11111222 
LOOP,urn:ioos:station:wmo:lopl1:1,2019-06-07T08:42:00Z,28.8850,-90.0250,27.6,11111222 
LOOP,urn:ioos:station:wmo:lopl1:1,2019-06-07T09:42:00Z,28.8850,-90.0250,27.5,11111222 
LOOP,urn:ioos:station:wmo:lopl1:1,2019-06-07T10:42:00Z,28.8850,-90.0250,27.5,11111222 
LOOP,urn:ioos:station:wmo:lopl1:1,2019-06-07T11:42:00Z,28.8850,-90.0250,27.5,11111222 
LOOP,urn:ioos:station:wmo:lopl1:1,2019-06-07T12:42:00Z,28.8850,-90.0250,27.6,11111222 
LOOP,urn:ioos:station:wmo:lopl1:1,2019-06-07T13:47:00Z,28.8850,-90.0250,27.9,11111222 
LOOP,urn:ioos:station:wmo:lopl1:1,2019-06-07T14:47:00Z,28.8850,-90.0250,28.0,11111222 
LOOP,urn:ioos:station:wmo:lopl1:1,2019-06-07T15:47:00Z,28.8850,-90.0250,28.2,11111222 
LOOP,urn:ioos:station:wmo:lopl1:1,2019-06-07T16:47:00Z,28.8850,-90.0250,28.1,11111222 
LOOP,urn:ioos:station:wmo:lopl1:1,2019-06-07T17:47:00Z,28.8850,-90.0250,28.3,11111222 
LOOP,urn:ioos:station:wmo:lopl1:1,2019-06-07T18:47:00Z,28.8850,-90.0250,27.9,11111222 
LOOP,urn:ioos:station:wmo:lopl1:1,2019-06-07T19:47:00Z,28.8850,-90.0250,28.2,11111222 
LOOP,urn:ioos:station:wmo:lopl1:1,2019-06-07T20:47:00Z,28.8850,-90.0250,28.3,11111222 
LOOP,urn:ioos:station:wmo:lopl1:1,2019-06-07T21:47:00Z,28.8850,-90.0250,26.5,11111222 
LOOP,urn:ioos:station:wmo:lopl1:1,2019-06-07T22:47:00Z,28.8850,-90.0250,27.3,11111222 
LOOP,urn:ioos:station:wmo:lopl1:1,2019-06-07T23:48:00Z,28.8850,-90.0250,27.0,11111222 
LOOP,urn:ioos:station:wmo:lopl1:1,2019-06-08T00:53:00Z,28.8850,-90.0250,27.2,11111222 
LOOP,urn:ioos:station:wmo:lopl1:1,2019-06-08T01:53:00Z,28.8850,-90.0250,27.5,11111222 
LOOP,urn:ioos:station:wmo:lopl1:1,2019-06-08T02:53:00Z,28.8850,-90.0250,27.3,11111222 
LOOP,urn:ioos:station:wmo:lopl1:1,2019-06-08T03:53:00Z,28.8850,-90.0250,27.5,11111222 
LOOP,urn:ioos:station:wmo:lopl1:1,2019-06-08T04:53:00Z,28.8850,-90.0250,28.1,11111222 
LOOP,urn:ioos:station:wmo:lopl1:1,2019-06-08T05:53:00Z,28.8850,-90.0250,28.2,11111222 
LOOP,urn:ioos:station:wmo:lopl1:1,2019-06-08T06:53:00Z,28.8850,-90.0250,28.1,11111222 
LOOP,urn:ioos:station:wmo:lopl1:1,2019-06-08T07:53:00Z,28.8850,-90.0250,28.2,11111222 
LOOP,urn:ioos:station:wmo:lopl1:1,2019-06-08T08:53:00Z,28.8850,-90.0250,28.1,11111222 
LOOP,urn:ioos:station:wmo:lopl1:1,2019-06-08T09:53:00Z,28.8850,-90.0250,28.2,11111222 
LOOP,urn:ioos:station:wmo:lopl1:1,2019-06-08T10:53:00Z,28.8850,-90.0250,28.1,11111222 
LOOP,urn:ioos:station:wmo:lopl1:1,2019-06-08T11:58:00Z,28.8850,-90.0250,27.4,11111222 
LOOP,urn:ioos:station:wmo:lopl1:1,2019-06-08T12:58:00Z,28.8850,-90.0250,28.3,11111222 
LOOP,urn:ioos:station:wmo:lopl1:1,2019-06-08T13:58:00Z,28.8850,-90.0250,27.8,11111222 
LOOP,urn:ioos:station:wmo:lopl1:1,2019-06-08T14:58:00Z,28.8850,-90.0250,28.1,11111222 
LOOP,urn:ioos:station:wmo:lopl1:1,2019-06-08T15:58:00Z,28.8850,-90.0250,28.3,11111222 
LOOP,urn:ioos:station:wmo:lopl1:1,2019-06-08T17:03:00Z,28.8850,-90.0250,28.4,11111222 
LOOP,urn:ioos:station:wmo:lopl1:1,2019-06-08T18:03:00Z,28.8850,-90.0250,28.6,11111222 
LOOP,urn:ioos:station:wmo:lopl1:1,2019-06-08T19:03:00Z,28.8850,-90.0250,28.8,11111222 
LOOP,urn:ioos:station:wmo:lopl1:1,2019-06-08T20:03:00Z,28.8850,-90.0250,29.4,11111222 
LOOP,urn:ioos:station:wmo:lopl1:1,2019-06-08T21:03:00Z,28.8850,-90.0250,28.8,11111222 
LOOP,urn:ioos:station:wmo:lopl1:1,2019-06-08T22:03:00Z,28.8850,-90.0250,29.1,11111222 
LOOP,urn:ioos:station:wmo:lopl1:1,2019-06-08T23:03:00Z,28.8850,-90.0250,29.3,11111222 
LOOP,urn:ioos:station:wmo:lopl1:1,2019-06-09T00:03:00Z,28.8850,-90.0250,29.0,11111222 
LOOP,urn:ioos:station:wmo:lopl1:1,2019-06-09T01:03:00Z,28.8850,-90.0250,28.5,11111222 
LOOP,urn:ioos:station:wmo:lopl1:1,2019-06-09T02:03:00Z,28.8850,-90.0250,28.5,11111222 
LOOP,urn:ioos:station:wmo:lopl1:1,2019-06-09T03:03:00Z,28.8850,-90.0250,28.6,11111222 
LOOP,urn:ioos:station:wmo:lopl1:1,2019-06-09T04:03:00Z,28.8850,-90.0250,28.5,11111222 
LOOP,urn:ioos:station:wmo:lopl1:1,2019-06-09T05:03:00Z,28.8850,-90.0250,28.4,11111222 
LOOP,urn:ioos:station:wmo:lopl1:1,2019-06-09T06:03:00Z,28.8850,-90.0250,28.3,11111222 
LOOP,urn:ioos:station:wmo:lopl1:1,2019-06-09T07:03:00Z,28.8850,-90.0250,28.3,11111222 
LOOP,urn:ioos:station:wmo:lopl1:1,2019-06-09T08:03:00Z,28.8850,-90.0250,29.1,11111222 
LOOP,urn:ioos:station:wmo:lopl1:1,2019-06-09T09:03:00Z,28.8850,-90.0250,29.2,11111222 
LOOP,urn:ioos:station:wmo:lopl1:1,2019-06-09T10:03:00Z,28.8850,-90.0250,29.0,11111222 
LOOP,urn:ioos:station:wmo:lopl1:1,2019-06-09T11:08:00Z,28.8850,-90.0250,29.0,11111222 
LOOP,urn:ioos:station:wmo:lopl1:1,2019-06-09T12:08:00Z,28.8850,-90.0250,28.3,11111222 
LOOP,urn:ioos:station:wmo:lopl1:1,2019-06-09T13:08:00Z,28.8850,-90.0250,28.3,11111222 
LOOP,urn:ioos:station:wmo:lopl1:1,2019-06-09T14:08:00Z,28.8850,-90.0250,28.6,11111222 
LOOP,urn:ioos:station:wmo:lopl1:1,2019-06-09T15:08:00Z,28.8850,-90.0250,28.5,11111222 
LOOP,urn:ioos:station:wmo:lopl1:1,2019-06-09T16:08:00Z,28.8850,-90.0250,29.3,11111222 
LOOP,urn:ioos:station:wmo:lopl1:1,2019-06-09T17:08:00Z,28.8850,-90.0250,30.1,11111222 
LOOP,urn:ioos:station:wmo:lopl1:1,2019-06-09T18:08:00Z,28.8850,-90.0250,30.1,11111222 
LOOP,urn:ioos:station:wmo:lopl1:1,2019-06-09T19:08:00Z,28.8850,-90.0250,30.1,11111222 
LOOP,urn:ioos:station:wmo:lopl1:1,2019-06-09T20:08:00Z,28.8850,-90.0250,30.0,11111222 
LOOP,urn:ioos:station:wmo:lopl1:1,2019-06-09T21:08:00Z,28.8850,-90.0250,30.0,11111222 
LOOP,urn:ioos:station:wmo:lopl1:1,2019-06-09T22:08:00Z,28.8850,-90.0250,30.1,11111222 
LOOP,urn:ioos:station:wmo:lopl1:1,2019-06-09T23:13:00Z,28.8850,-90.0250,30.1,11111222 
LOOP,urn:ioos:station:wmo:lopl1:1,2019-06-10T00:13:00Z,28.8850,-90.0250,30.9,11111222 
LOOP,urn:ioos:station:wmo:lopl1:1,2019-06-10T01:13:00Z,28.8850,-90.0250,29.7,11111222 
LOOP,urn:ioos:station:wmo:lopl1:1,2019-06-10T02:13:00Z,28.8850,-90.0250,29.4,11111222 
LOOP,urn:ioos:station:wmo:lopl1:1,2019-06-10T03:13:00Z,28.8850,-90.0250,29.4,11111222 
LOOP,urn:ioos:station:wmo:lopl1:1,2019-06-10T04:13:00Z,28.8850,-90.0250,29.4,11111222 
LOOP,urn:ioos:station:wmo:lopl1:1,2019-06-10T05:13:00Z,28.8850,-90.0250,30.4,11111222 
LOOP,urn:ioos:station:wmo:lopl1:1,2019-06-10T06:13:00Z,28.8850,-90.0250,29.3,11111222 
LOOP,urn:ioos:station:wmo:lopl1:1,2019-06-10T07:13:00Z,28.8850,-90.0250,28.9,11111222 
LOOP,urn:ioos:station:wmo:lopl1:1,2019-06-10T08:13:00Z,28.8850,-90.0250,28.6,11111222 
LOOP,urn:ioos:station:wmo:lopl1:1,2019-06-10T09:13:00Z,28.8850,-90.0250,28.2,11111222 
LOOP,urn:ioos:station:wmo:lopl1:1,2019-06-10T10:13:00Z,28.8850,-90.0250,27.8,11111222 
LOOP,urn:ioos:station:wmo:lopl1:1,2019-06-10T11:13:00Z,28.8850,-90.0250,27.6,11111222 
LOOP,urn:ioos:station:wmo:lopl1:1,2019-06-10T12:13:00Z,28.8850,-90.0250,27.3,11111222 
LOOP,urn:ioos:station:wmo:lopl1:1,2019-06-10T13:13:00Z,28.8850,-90.0250,27.4,11111222 
LOOP,urn:ioos:station:wmo:lopl1:1,2019-06-10T14:18:00Z,28.8850,-90.0250,27.4,11111222 
LOOP,urn:ioos:station:wmo:lopl1:1,2019-06-10T15:18:00Z,28.8850,-90.0250,27.5,11111222 
LOOP,urn:ioos:station:wmo:lopl1:1,2019-06-10T16:18:00Z,28.8850,-90.0250,27.6,11111222 
LOOP,urn:ioos:station:wmo:lopl1:1,2019-06-10T17:18:00Z,28.8850,-90.0250,27.8,11111222 
LOOP,urn:ioos:station:wmo:lopl1:1,2019-06-10T18:18:00Z,28.8850,-90.0250,27.8,11111222 
LOOP,urn:ioos:station:wmo:lopl1:1,2019-06-10T19:18:00Z,28.8850,-90.0250,28.2,11111222 
LOOP,urn:ioos:station:wmo:lopl1:1,2019-06-10T20:18:00Z,28.8850,-90.0250,28.5,11111222 
LOOP,urn:ioos:station:wmo:lopl1:1,2019-06-10T21:18:00Z,28.8850,-90.0250,29.0,11111222 
LOOP,urn:ioos:station:wmo:lopl1:1,2019-06-10T22:18:00Z,28.8850,-90.0250,29.2,11111222 
LOOP,urn:ioos:station:wmo:lopl1:1,2019-06-10T23:18:00Z,28.8850,-90.0250,29.5,11111222 
LOOP,urn:ioos:station:wmo:lopl1:1,2019-06-11T00:18:00Z,28.8850,-90.0250,29.6,11111222 
LOOP,urn:ioos:station:wmo:lopl1:1,2019-06-11T01:18:00Z,28.8850,-90.0250,29.2,11111222 
LOOP,urn:ioos:station:wmo:lopl1:1,2019-06-11T02:23:00Z,28.8850,-90.0250,29.5,11111222 
LOOP,urn:ioos:station:wmo:lopl1:1,2019-06-11T03:23:00Z,28.8850,-90.0250,29.5,11111222 
LOOP,urn:ioos:station:wmo:lopl1:1,2019-06-11T04:23:00Z,28.8850,-90.0250,30.1,11111222 
LOOP,urn:ioos:station:wmo:lopl1:1,2019-06-11T05:23:00Z,28.8850,-90.0250,28.9,11111222 
LOOP,urn:ioos:station:wmo:lopl1:1,2019-06-11T06:23:00Z,28.8850,-90.0250,28.1,11111222 
LOOP,urn:ioos:station:wmo:lopl1:1,2019-06-11T07:23:00Z,28.8850,-90.0250,27.7,11111222 
LOOP,urn:ioos:station:wmo:lopl1:1,2019-06-11T08:23:00Z,28.8850,-90.0250,27.3,11111222 
LOOP,urn:ioos:station:wmo:lopl1:1,2019-06-11T09:23:00Z,28.8850,-90.0250,26.9,11111222 
LOOP,urn:ioos:station:wmo:lopl1:1,2019-06-11T10:23:00Z,28.8850,-90.0250,26.6,11111222 
LOOP,urn:ioos:station:wmo:lopl1:1,2019-06-11T11:23:00Z,28.8850,-90.0250,26.4,11111222 
LOOP,urn:ioos:station:wmo:lopl1:1,2019-06-11T12:28:00Z,28.8850,-90.0250,26.1,11111222 
LOOP,urn:ioos:station:wmo:lopl1:1,2019-06-11T13:28:00Z,28.8850,-90.0250,26.2,11111222 
LOOP,urn:ioos:station:wmo:lopl1:1,2019-06-11T14:28:00Z,28.8850,-90.0250,26.2,11111222 
LOOP,urn:ioos:station:wmo:lopl1:1,2019-06-11T15:28:00Z,28.8850,-90.0250,26.3,11111222 
LOOP,urn:ioos:station:wmo:lopl1:1,2019-06-11T16:28:00Z,28.8850,-90.0250,26.4,11111222 
LOOP,urn:ioos:station:wmo:lopl1:1,2019-06-11T17:28:00Z,28.8850,-90.0250,26.4,11111222 
LOOP,urn:ioos:station:wmo:lopl1:1,2019-06-11T18:28:00Z,28.8850,-90.0250,26.6,11111222 
LOOP,urn:ioos:station:wmo:lopl1:1,2019-06-11T19:28:00Z,28.8850,-90.0250,26.5,11111222 
LOOP,urn:ioos:station:wmo:lopl1:1,2019-06-11T20:28:00Z,28.8850,-90.0250,26.9,11111222 
LOOP,urn:ioos:station:wmo:lopl1:1,2019-06-11T21:28:00Z,28.8850,-90.0250,27.1,11111222 
LOOP,urn:ioos:station:wmo:lopl1:1,2019-06-11T22:28:00Z,28.8850,-90.0250,27.7,11111222 
LOOP,urn:ioos:station:wmo:lopl1:1,2019-06-11T23:28:00Z,28.8850,-90.0250,27.8,11111222 
LOOP,urn:ioos:station:wmo:lopl1:1,2019-06-12T00:33:00Z,28.8850,-90.0250,27.2,11111222 
LOOP,urn:ioos:station:wmo:lopl1:1,2019-06-12T01:33:00Z,28.8850,-90.0250,27.3,11111222 
LOOP,urn:ioos:station:wmo:lopl1:1,2019-06-12T02:33:00Z,28.8850,-90.0250,27.3,11111222 
LOOP,urn:ioos:station:wmo:lopl1:1,2019-06-12T03:33:00Z,28.8850,-90.0250,27.3,11111222 
LOOP,urn:ioos:station:wmo:lopl1:1,2019-06-12T04:33:00Z,28.8850,-90.0250,27.3,11111222 
LOOP,urn:ioos:station:wmo:lopl1:1,2019-06-12T05:33:00Z,28.8850,-90.0250,27.3,11111222 
LOOP,urn:ioos:station:wmo:lopl1:1,2019-06-12T06:33:00Z,28.8850,-90.0250,27.2,11111222 
LOOP,urn:ioos:station:wmo:lopl1:1,2019-06-12T07:33:00Z,28.8850,-90.0250,27.3,11111222 
LOOP,urn:ioos:station:wmo:lopl1:1,2019-06-12T08:33:00Z,28.8850,-90.0250,27.1,11111222 
LOOP,urn:ioos:station:wmo:lopl1:1,2019-06-12T09:33:00Z,28.8850,-90.0250,27.0,11111222 
LOOP,urn:ioos:station:wmo:lopl1:1,2019-06-12T10:38:00Z,28.8850,-90.0250,26.9,11111222 
LOOP,urn:ioos:station:wmo:lopl1:1,2019-06-12T11:38:00Z,28.8850,-90.0250,27.3,11111222 
LOOP,urn:ioos:station:wmo:lopl1:1,2019-06-12T12:38:00Z,28.8850,-90.0250,27.7,11111222 